Location: Torrington
(42.0650°N, 104.1810°W)
Time: 21:39:20
(UTC-06:00)

Amateur Radio Satellites - All Passes

Search period start: 01 May 2016 21:09
Search period end: 02 May 2016 21:09
Location: Torrington, 42.0650°N, 104.1810°W

Satellite Date Start Highest point End Downlink Frequencies (MHz)
Time Altitude Azimuth
AIST 2 01 May 21:09:29 21:13:32 59° 120° (ESE) 21:17:38 435.215
DELFI C3 01 May 21:15:29 21:18:54 29° 70° (ENE) 21:22:20 145.870
CANX-2 01 May 21:23:41 21:26:21 16° 268° (W) 21:29:02 2200.000
AAUSAT CUBESAT 2 01 May 21:26:51 21:30:39 36° 262° (W) 21:34:29 437.432
BEESAT 2 01 May 21:29:50 21:30:38 10° 324° (NW) 21:31:26 435.950
Oscar 11 01 May 21:35:36 21:39:55 76° 259° (WSW) 21:44:14 145.826/435.025
HO-68 01 May 21:44:19 21:49:43 23° 268° (W) 21:55:10 435.675
FUNcube-1 01 May 21:45:15 21:49:47 73° 258° (WSW) 21:54:16 145.935
UWE-3 01 May 21:53:45 21:58:07 39° 262° (W) 22:02:25 435.000/436.395/437.385
CUBEBUG 2 01 May 21:59:16 22:03:13 26° 265° (W) 22:07:09 437.445
HUMSAT D 01 May 22:04:53 22:08:58 49° 73° (ENE) 22:13:01 437.325/437.525
AO-85 01 May 22:12:46 22:17:36 87° 238° (WSW) 22:21:57 145.980
PRISM 01 May 22:12:49 22:16:20 27° 292° (WNW) 22:19:51 437.425
YUBILEINY 01 May 22:12:55 22:15:46 12° 306° (NW) 22:18:39 435.215
UNISAT 6 01 May 22:19:31 22:22:04 15° 91° (E) 22:24:35 437.425
CUBEBUG 1 01 May 22:21:15 22:22:41 11° 61° (ENE) 22:24:07 437.445
RS-15 01 May 22:26:10 22:37:26 82° 119° (ESE) 22:49:22 29.354- 29.394
ZACube-1 01 May 22:27:52 22:31:37 25° 265° (W) 22:35:21 437.345
Cosmos 2504 01 May 22:30:25 22:36:12 25° 292° (WNW) 22:41:57 435.465 / 435.565
TIGRISAT 01 May 22:36:47 22:40:11 22° 94° (E) 22:43:31 435.000
VELOX 1 01 May 22:43:24 22:46:39 20° 65° (ENE) 22:49:56 145.980
DX 1 01 May 22:44:32 22:47:35 19° 64° (ENE) 22:50:39 434.975-435.025
AIST 2 01 May 22:49:36 22:52:24 17° 318° (NW) 22:55:13 435.215
DELFI C3 01 May 22:50:49 22:53:48 21° 266° (W) 22:56:49 145.870
UKube-1 01 May 22:53:09 22:56:11 19° 65° (ENE) 22:59:14 .
50 SAT 01 May 22:53:52 22:56:51 24° 69° (ENE) 22:59:51 437.505
ANTELSAT 01 May 23:00:34 23:04:42 42° 98° (E) 23:08:45 437.575/2403.000
PCSat 01 May 23:05:11 23:05:28 10° 32° (NNE) 23:05:45 145.827
QB50P2 01 May 23:11:46 23:12:56 11° 89° (E) 23:14:06 145.880/145.840
POLYITAN 1 01 May 23:13:50 23:15:05 11° 90° (E) 23:16:20 437.675
AISAT 01 May 23:14:11 23:18:24 43° 71° (ENE) 23:22:38 437.250
POPSAT HIP 1 01 May 23:16:29 23:18:01 12° 90° (E) 23:19:33 437.405
QB50P1 01 May 23:19:26 23:21:26 13° 91° (E) 23:23:24 145.935-145.965
SPROUT 01 May 23:24:58 23:28:08 20° 66° (ENE) 23:31:19 437.525
ESTCUBE 1 01 May 23:27:58 23:32:26 80° 76° (ENE) 23:36:56 437.505/2401.250
O/OREOS (USA 219) 01 May 23:41:04 23:43:09 13° 50° (NE) 23:45:15 437.305
HUMSAT D 01 May 23:42:34 23:44:51 14° 269° (W) 23:47:08 437.325/437.525
NANOSAT C BR1 01 May 23:53:29 23:57:13 30° 96° (E) 00:00:54 145.865
CUBEBUG 1 01 May 23:53:58 23:58:19 76° 257° (WSW) 00:02:46 437.445
UNISAT 6 01 May 23:54:53 23:59:04 47° 288° (WNW) 00:03:10 437.425
AIST 1 01 May 23:56:53 23:59:54 19° 86° (E) 00:02:55
GONETS M04 01 May 23:57:09 00:04:40 33° 83° (E) 00:12:09
BUGSAT 1 01 May 23:58:26 00:00:58 15° 92° (E) 00:03:27 437.445
TISAT 1 02 May 00:03:39 00:06:19 17° 64° (ENE) 00:09:01 437.305
TIGRISAT 02 May 00:13:03 00:16:56 32° 291° (WNW) 00:20:44 435.000
VELOX 1 02 May 00:18:42 00:22:51 40° 262° (W) 00:27:03 145.980
DX 1 02 May 00:19:20 00:23:28 42° 261° (W) 00:27:39 434.975-435.025
50 SAT 02 May 00:27:46 00:30:37 21° 265° (W) 00:33:28 437.505
UKube-1 02 May 00:27:51 00:31:56 41° 261° (W) 00:36:03 .
JAS-2 02 May 00:36:39 00:42:08 20° 88° (E) 00:47:36 435.910
CUSAT 1 02 May 00:37:54 00:41:40 15° 62° (ENE) 00:45:40 437.405
ANTELSAT 02 May 00:38:09 00:41:05 18° 296° (WNW) 00:44:00 437.575/2403.000
RS-15 02 May 00:40:50 00:51:16 38° 326° (NNW) 01:02:17 29.354- 29.394
QB50P2 02 May 00:44:57 00:49:10 64° 286° (WNW) 00:53:21 145.880/145.840
PCSat 02 May 00:45:06 00:50:19 45° 54° (NE) 00:55:30 145.827
Cosmos 2499 02 May 00:45:50 00:51:49 30° 85° (E) 00:57:47 435.465 / 435.565
DUCHIFAT 1 02 May 00:46:05 00:50:19 73° 284° (WNW) 00:54:28 145.980
POLYITAN 1 02 May 00:47:06 00:51:19 63° 286° (WNW) 00:55:28 437.675
POPSAT HIP 1 02 May 00:50:01 00:54:12 60° 286° (WNW) 00:58:21 437.405
AISAT 02 May 00:52:03 00:55:05 18° 267° (W) 00:58:08 437.250
QB50P1 02 May 00:53:23 00:57:32 54° 287° (WNW) 01:01:39 145.935-145.965
SPROUT 02 May 00:59:50 01:03:50 37° 262° (W) 01:07:53 437.525
ITUPSAT 1 02 May 01:02:24 01:05:04 15° 61° (ENE) 01:07:44 437.325
SWISSCUBE 02 May 01:11:27 01:14:55 20° 64° (ENE) 01:18:22 437.505
DANDE 02 May 01:11:40 01:13:57 12° 64° (ENE) 01:16:21 436.750
O/OREOS (USA 219) 02 May 01:18:38 01:23:11 78° 248° (WSW) 01:27:39 437.305
NANOSAT C BR1 02 May 01:29:25 01:32:49 24° 293° (WNW) 01:36:11 145.865
BUGSAT 1 02 May 01:32:33 01:36:35 44° 288° (WNW) 01:40:32 437.445
AIST 1 02 May 01:33:14 01:37:12 36° 284° (WNW) 01:41:13
TISAT 1 02 May 01:37:30 01:41:36 47° 261° (W) 01:45:44 437.305
BEESAT 02 May 01:43:41 01:48:03 37° 69° (ENE) 01:52:24 436.000
GONETS M04 02 May 01:52:20 02:00:59 57° 283° (WNW) 02:09:41
Gurwin Techsat 1B 02 May 02:08:52 02:12:54 21° 93° (E) 02:16:53 435.225
CUSAT 1 02 May 02:17:37 02:24:45 70° 79° (ENE) 02:32:47 437.405
JAS-2 02 May 02:20:03 02:27:52 85° 285° (WNW) 02:35:43 435.910
Oscar 19 02 May 02:21:33 02:26:46 68° 102° (ESE) 02:31:56 437.125/150
BEESAT 3 02 May 02:23:52 02:26:05 14° 40° (NE) 02:28:17 437.485
PCSat 02 May 02:28:59 02:33:28 27° 252° (WSW) 02:37:55 145.827
KKS-1 02 May 02:29:17 02:31:43 15° 62° (ENE) 02:34:09 437.445
BEESAT 2 02 May 02:30:04 02:31:14 11° 37° (NE) 02:32:24 435.950
ITUPSAT 1 02 May 02:37:38 02:42:22 65° 258° (WSW) 02:47:07 437.325
Cosmos 2499 02 May 02:37:52 02:44:36 46° 285° (WNW) 02:51:24 435.465 / 435.565
SWISSCUBE 02 May 02:47:50 02:52:22 45° 260° (W) 02:56:58 437.505
STARS 02 May 02:49:16 02:51:03 12° 61° (ENE) 02:52:50 437.465
DANDE 02 May 02:51:09 02:57:32 65° 79° (ENE) 03:05:26 436.750
RS-15 02 May 02:59:31 03:08:37 24° 1° (N) 03:17:57 29.354- 29.394
BEESAT 02 May 03:22:06 03:25:55 24° 265° (W) 03:29:45 436.000
ITAMSAT 1 02 May 03:38:01 03:43:09 59° 101° (ESE) 03:48:15 435.822/435.867
Gurwin Techsat 1B 02 May 03:47:59 03:53:06 49° 290° (WNW) 03:58:11 435.225
GONETS M04 02 May 03:57:51 04:00:08 11° 307° (NW) 04:02:25
MOZHAYETS 4 02 May 03:59:48 04:04:21 74° 76° (ENE) 04:08:56
BEESAT 3 02 May 04:00:18 04:04:15 72° 239° (WSW) 04:08:10 437.485
CUSAT 1 02 May 04:00:45 04:06:27 25° 273° (W) 04:12:37 437.405
Oscar 19 02 May 04:02:18 04:05:30 17° 299° (WNW) 04:08:43 437.125/150
KKS-1 02 May 04:03:21 04:07:46 61° 258° (WSW) 04:12:14 437.445
BEESAT 2 02 May 04:05:47 04:09:48 76° 57° (ENE) 04:13:45 435.950
JAS-2 02 May 04:06:36 04:11:50 20° 304° (WNW) 04:17:08 435.910
AO-7 02 May 04:08:59 04:16:45 41° 99° (E) 04:24:28 29.400- 29.500
CUBESAT XI-V 02 May 04:09:07 04:10:27 11° 60° (ENE) 04:11:47 437.345
STARS 02 May 04:22:22 04:26:48 73° 257° (WSW) 04:31:16 437.465
YUBILEINY 02 May 04:23:17 04:27:44 15° 57° (ENE) 04:32:09 435.215
DANDE 02 May 04:34:53 04:40:08 25° 271° (W) 04:46:11 436.750
Cosmos 2491 02 May 05:11:28 05:14:16 12° 72° (ENE) 05:17:03 435.465 / 435.565
RS-15 02 May 05:14:46 05:25:56 39° 35° (NE) 05:37:12 29.354- 29.394
ITAMSAT 1 02 May 05:18:37 05:22:09 19° 298° (WNW) 05:25:41 435.822/435.867
HORYU 2 02 May 05:21:22 05:25:37 44° 99° (E) 05:29:49 437.375
AIST 2 02 May 05:30:29 05:34:28 44° 52° (NE) 05:38:25 435.215
MOZHAYETS 4 02 May 05:40:58 05:42:02 11° 271° (W) 05:43:07
CUBESAT XI-V 02 May 05:42:32 05:47:07 84° 257° (WSW) 05:51:47 437.345
NOAA 15 02 May 05:46:47 05:49:53 16° 90° (E) 05:53:00 137.62
AO-7 02 May 06:01:44 06:09:34 48° 298° (WNW) 06:17:24 29.400- 29.500
YUBILEINY 02 May 06:17:37 06:26:20 71° 80° (E) 06:35:00 435.215
Cosmos 2504 02 May 06:26:45 06:32:19 21° 66° (ENE) 06:38:05 435.465 / 435.565
GOMX 1 02 May 06:32:58 06:36:03 15° 88° (E) 06:39:04 467.674
CUTE-I 02 May 06:40:11 06:44:57 32° 96° (E) 06:49:41 437.470
STRAND 1 02 May 06:41:14 06:45:56 39° 69° (ENE) 06:50:38 437.568
NOAA 18 02 May 06:46:10 06:51:26 47° 100° (E) 06:56:40 137.9125
BRITE-PL 02 May 06:53:29 06:59:00 48° 98° (E) 07:04:24 437.365/2234.400
HORYU 2 02 May 06:58:48 07:01:51 19° 296° (WNW) 07:04:53 437.375
Cosmos 2491 02 May 07:00:34 07:09:15 67° 92° (E) 07:18:01 435.465 / 435.565
SO-50 02 May 07:05:38 07:10:05 36° 115° (ESE) 07:14:35 436.795
AIST 2 02 May 07:09:46 07:12:38 18° 249° (WSW) 07:15:29 435.215
M-CUBED/EXP-1 PRIME 02 May 07:14:02 07:16:22 15° 96° (E) 07:18:36 437.505
LilacSat-2 02 May 07:20:45 07:24:35 86° 103° (ESE) 07:28:22 437.200
Cubesat XI-IV 02 May 07:23:58 07:29:19 81° 103° (ESE) 07:34:39 437.490
NOAA 15 02 May 07:24:51 07:30:08 68° 287° (WNW) 07:35:25 137.62
HO-68 02 May 07:25:54 07:27:15 11° 86° (E) 07:28:35 435.675
RS-15 02 May 07:27:32 07:39:51 82° 241° (WSW) 07:52:08 29.354- 29.394
PRISM 02 May 07:27:55 07:30:56 20° 66° (ENE) 07:33:59 437.425
AUBIESAT-1 02 May 07:32:52 07:35:48 20° 98° (E) 07:38:34 437.475
ISS 02 May 07:43:00 07:46:09 45° 139° (SE) 07:49:17 145.825
AO-7 02 May 07:58:06 08:00:17 11° 320° (NW) 08:02:30 29.400- 29.500
CUTE 1.7 + AOD 2 02 May 08:04:58 08:07:20 15° 91° (E) 08:09:41 437.475
DOVE 4 02 May 08:08:59 08:14:07 60° 100° (E) 08:18:56 437.250
GOMX 1 02 May 08:09:13 08:14:41 71° 285° (WNW) 08:19:55 467.674
YUBILEINY 02 May 08:15:42 08:22:15 25° 280° (W) 08:28:49 435.215
Cosmos 2504 02 May 08:18:50 08:26:24 77° 265° (W) 08:34:31 435.465 / 435.565
CUTE-I 02 May 08:20:14 08:24:57 33° 293° (WNW) 08:29:39 437.470
STRAND 1 02 May 08:21:00 08:25:12 26° 265° (W) 08:29:24 437.568
NOAA 18 02 May 08:27:27 08:31:47 25° 297° (WNW) 08:36:06 137.9125
BRITE-PL 02 May 08:32:28 08:37:08 27° 295° (WNW) 08:41:44 437.365/2234.400
SEEDS 02 May 08:32:46 08:36:02 21° 94° (E) 08:39:16 437.485
COMPASS 1 02 May 08:37:44 08:40:34 18° 92° (E) 08:43:23 437.405
SO-50 02 May 08:46:11 08:50:37 33° 313° (NW) 08:55:03 436.795
M-CUBED/EXP-1 PRIME 02 May 08:47:27 08:51:12 39° 295° (WNW) 08:54:39 437.505
CINEMA 3 02 May 08:57:34 09:02:11 59° 99° (E) 09:06:33 145.822/145.860
Cosmos 2491 02 May 08:59:30 09:06:47 28° 293° (WNW) 09:14:09 435.465 / 435.565
PRISM 02 May 09:02:21 09:06:02 33° 262° (W) 09:09:47 437.425
Cubesat XI-IV 02 May 09:05:53 09:08:42 15° 301° (WNW) 09:11:32 437.490
CANX-2 02 May 09:06:17 09:10:32 82° 104° (ESE) 09:14:45 2200.000
AUBIESAT-1 02 May 09:06:57 09:10:21 28° 297° (WNW) 09:13:33 437.475
AAUSAT CUBESAT 2 02 May 09:08:34 09:12:16 31° 97° (E) 09:15:56 437.432
HO-68 02 May 09:09:02 09:16:11 69° 104° (ESE) 09:23:18 435.675
UNISAT 6 02 May 09:18:44 09:21:42 17° 64° (ENE) 09:24:37 437.425
ISS 02 May 09:19:49 09:22:43 28° 338° (NNW) 09:25:37 145.825
Oscar 11 02 May 09:23:14 09:26:17 19° 93° (E) 09:29:20 145.826/435.025
FUNcube-1 02 May 09:33:56 09:36:59 19° 93° (E) 09:39:59 145.935
PHONESAT 2.4 02 May 09:35:37 09:36:22 11° 148° (SSE) 09:37:06 2401.200-2431.200
TIGRISAT 02 May 09:35:40 09:39:19 23° 67° (ENE) 09:42:56 435.000
CUTE 1.7 + AOD 2 02 May 09:39:23 09:43:26 48° 287° (WNW) 09:47:29 437.475
RS-15 02 May 09:42:14 09:50:25 21° 262° (W) 09:58:37 29.354- 29.394
UWE-3 02 May 09:43:04 09:47:05 39° 98° (E) 09:50:59 435.000/436.395/437.385
DOVE 4 02 May 09:47:51 09:51:14 18° 298° (WNW) 09:54:32 437.250
CUBEBUG 2 02 May 09:49:04 09:53:23 67° 100° (E) 09:57:35 437.445
GOMX 1 02 May 09:50:32 09:51:42 11° 304° (WNW) 09:52:52 467.674
ANTELSAT 02 May 09:59:19 10:03:41 41° 71° (ENE) 10:08:00 437.575/2403.000
QB50P2 02 May 10:06:23 10:06:38 10° 60° (ENE) 10:06:52 145.880/145.840
GONETS M04 02 May 10:07:13 10:12:12 16° 58° (ENE) 10:17:09
SEEDS 02 May 10:08:03 10:11:46 31° 290° (WNW) 10:15:29 437.485
POLYITAN 1 02 May 10:08:10 10:08:47 10° 60° (ENE) 10:09:23 437.675
POPSAT HIP 1 02 May 10:10:33 10:11:31 11° 61° (ENE) 10:12:28 437.405
COMPASS 1 02 May 10:12:25 10:16:17 38° 288° (WNW) 10:20:09 437.405
QB50P1 02 May 10:13:15 10:14:46 12° 61° (ENE) 10:16:17 145.935-145.965
ZACube-1 02 May 10:15:02 10:19:13 60° 100° (E) 10:23:18 437.345
Cosmos 2504 02 May 10:15:28 10:18:33 13° 283° (WNW) 10:21:42 435.465 / 435.565
DELFI C3 02 May 10:26:58 10:30:48 45° 99° (E) 10:34:38 145.870
CINEMA 3 02 May 10:36:06 10:38:46 15° 298° (WNW) 10:41:23 145.822/145.860
Cosmos 2499 02 May 10:37:09 10:39:13 11° 58° (ENE) 10:41:19 435.465 / 435.565
AAUSAT CUBESAT 2 02 May 10:44:22 10:47:36 22° 292° (WNW) 10:50:48 437.432
NANOSAT C BR1 02 May 10:46:10 10:49:38 24° 67° (ENE) 10:53:06 145.865
BUGSAT 1 02 May 10:49:27 10:51:22 13° 62° (ENE) 10:53:17 437.445
UNISAT 6 02 May 10:53:26 10:58:00 54° 260° (W) 11:02:31 437.425
HO-68 02 May 10:57:44 11:03:17 25° 302° (WNW) 11:08:50 435.675
ISS 02 May 10:57:55 10:59:57 15° 357° (N) 11:02:00 145.825
Oscar 11 02 May 10:58:34 11:02:34 38° 289° (WNW) 11:06:33 145.826/435.025
FUNcube-1 02 May 11:09:31 11:13:21 34° 290° (WNW) 11:17:06 145.935
PHONESAT 2.4 02 May 11:09:44 11:12:41 37° 163° (SSE) 11:15:39 2401.200-2431.200
TIGRISAT 02 May 11:11:29 11:15:48 37° 263° (W) 11:20:04 435.000
UWE-3 02 May 11:20:17 11:23:15 19° 295° (WNW) 11:26:10 435.000/436.395/437.385
ESTCUBE 1 02 May 11:21:11 11:24:03 16° 92° (E) 11:26:55 437.505/2401.250
HUMSAT D 02 May 11:23:16 11:27:22 89° 90° (E) 11:31:26 437.325/437.525
CUBEBUG 2 02 May 11:27:46 11:29:25 12° 299° (WNW) 11:31:03 437.445
ANTELSAT 02 May 11:37:06 11:40:32 20° 267° (W) 11:43:57 437.575/2403.000
QB50P2 02 May 11:37:28 11:41:46 83° 256° (WSW) 11:46:05 145.880/145.840
DUCHIFAT 1 02 May 11:37:52 11:42:08 85° 76° (ENE) 11:46:26 145.980
AIST 1 02 May 11:39:16 11:43:37 55° 79° (E) 11:47:56
POLYITAN 1 02 May 11:39:37 11:43:55 82° 256° (WSW) 11:48:14 437.675
POPSAT HIP 1 02 May 11:42:22 11:46:39 79° 256° (WSW) 11:50:59 437.405
CUBEBUG 1 02 May 11:42:59 11:46:12 19° 93° (E) 11:49:24 437.445
QB50P1 02 May 11:45:42 11:49:57 71° 257° (WSW) 11:54:15 145.935-145.965
ZACube-1 02 May 11:53:09 11:54:59 13° 298° (WNW) 11:56:48 437.345
50 SAT 02 May 11:56:28 11:59:40 28° 97° (E) 12:02:52 437.505
GONETS M04 02 May 12:01:54 12:10:43 76° 81° (E) 12:19:24
Oscar 19 02 May 12:02:40 12:05:17 14° 59° (ENE) 12:07:54 437.125/150
DELFI C3 02 May 12:03:04 12:05:19 15° 295° (WNW) 12:07:34 145.870
DX 1 02 May 12:07:04 12:10:59 30° 97° (E) 12:14:50 434.975-435.025
VELOX 1 02 May 12:08:13 12:12:20 36° 97° (E) 12:16:26 145.980
UKube-1 02 May 12:14:32 12:18:22 30° 97° (E) 12:22:10 .
NANOSAT C BR1 02 May 12:21:29 12:25:14 30° 264° (W) 12:29:01 145.865
BUGSAT 1 02 May 12:22:01 12:26:13 63° 259° (W) 12:30:27 437.445
Cosmos 2499 02 May 12:26:18 12:33:56 62° 79° (E) 12:42:08 435.465 / 435.565
AO-85 02 May 12:26:36 12:31:25 33° 113° (ESE) 12:36:14 145.980
JAS-2 02 May 12:32:49 12:38:28 45° 67° (ENE) 12:44:51 435.910
ISS 02 May 12:34:38 12:37:17 22° 18° (NNE) 12:39:57 145.825
AISAT 02 May 12:40:00 12:44:31 84° 103° (ESE) 12:48:59 437.250
SPROUT 02 May 12:45:17 12:49:13 34° 97° (E) 12:53:07 437.525
PHONESAT 2.4 02 May 12:46:14 12:49:22 66° 180° (S) 12:52:31 2401.200-2431.200
ESTCUBE 1 02 May 12:56:45 13:01:08 49° 288° (WNW) 13:05:29 437.505/2401.250
CUBEBUG 1 02 May 13:18:29 13:22:38 40° 290° (WNW) 13:26:45 437.445
AIST 1 02 May 13:18:40 13:20:41 13° 276° (W) 13:22:42
ITAMSAT 1 02 May 13:20:32 13:22:50 13° 58° (ENE) 13:25:08 435.822/435.867
TISAT 1 02 May 13:21:22 13:24:53 25° 95° (E) 13:28:20 437.305
AO-7 02 May 13:21:25 13:25:13 14° 44° (NE) 13:29:01 29.400- 29.500
Gurwin Techsat 1B 02 May 13:30:07 13:34:54 36° 68° (ENE) 13:39:43 435.225
50 SAT 02 May 13:30:41 13:33:17 19° 293° (WNW) 13:35:53 437.505
Oscar 19 02 May 13:38:44 13:43:54 82° 256° (WSW) 13:49:08 437.125/150
DX 1 02 May 13:43:25 13:47:03 25° 293° (WNW) 13:50:38 434.975-435.025
VELOX 1 02 May 13:45:07 13:48:36 23° 294° (WNW) 13:52:04 145.980
UKube-1 02 May 13:50:44 13:54:18 25° 293° (WNW) 13:57:51 .
O/OREOS (USA 219) 02 May 13:55:20 13:56:47 11° 97° (E) 13:58:14 437.305
GONETS M04 02 May 14:00:13 14:06:32 23° 281° (W) 14:12:48
AO-85 02 May 14:06:40 14:11:51 42° 311° (NW) 14:16:57 145.980
ISS 02 May 14:10:48 14:14:03 79° 217° (SW) 14:17:19 145.825
JAS-2 02 May 14:18:35 14:23:44 30° 268° (W) 14:29:30 435.910
AISAT 02 May 14:19:14 14:20:18 11° 300° (WNW) 14:21:22 437.250
Cosmos 2499 02 May 14:20:20 14:26:31 27° 276° (W) 14:33:04 435.465 / 435.565
SPROUT 02 May 14:21:40 14:24:59 22° 293° (WNW) 14:28:15 437.525
PHONESAT 2.4 02 May 14:23:06 14:26:05 40° 196° (SSW) 14:29:04 2401.200-2431.200
ITUPSAT 1 02 May 14:37:56 14:42:08 30° 96° (E) 14:46:20 437.325
SWISSCUBE 02 May 14:47:21 14:51:53 42° 99° (E) 14:56:24 437.505
ITAMSAT 1 02 May 14:56:22 15:01:33 88° 256° (WSW) 15:06:46 435.822/435.867
TISAT 1 02 May 14:56:52 15:00:30 28° 291° (WNW) 15:04:06 437.305
AO-7 02 May 15:08:13 15:16:15 58° 65° (ENE) 15:24:19 29.400- 29.500
Gurwin Techsat 1B 02 May 15:10:16 15:14:52 30° 264° (W) 15:19:30 435.225
BEESAT 02 May 15:20:27 15:25:15 84° 102° (ESE) 15:30:00 436.000
CUSAT 1 02 May 15:23:35 15:26:53 54° 94° (E) 15:31:13 437.405
PCSat 02 May 15:27:19 15:32:15 37° 111° (ESE) 15:37:12 145.827
O/OREOS (USA 219) 02 May 15:30:57 15:35:32 72° 294° (WNW) 15:40:08 437.305
SO-50 02 May 15:36:36 15:41:02 37° 49° (NE) 15:45:17 436.795
AO-85 02 May 15:52:26 15:53:46 11° 331° (NNW) 15:55:05 145.980
KKS-1 02 May 15:54:21 15:58:01 24° 95° (E) 16:01:38 437.445
MOZHAYETS 4 02 May 15:55:29 15:58:27 17° 92° (E) 16:01:23
PHONESAT 2.4 02 May 16:01:12 16:02:27 12° 211° (SSW) 16:03:42 2401.200-2431.200
DANDE 02 May 16:03:51 16:06:37 52° 95° (E) 16:10:03 436.750
STARS 02 May 16:12:15 16:15:26 19° 93° (E) 16:18:37 437.465
ITUPSAT 1 02 May 16:15:48 16:19:54 29° 293° (WNW) 16:24:00 437.325
HORYU 2 02 May 16:19:35 16:23:49 43° 71° (ENE) 16:28:04 437.375
SWISSCUBE 02 May 16:25:48 16:29:24 22° 295° (WNW) 16:33:00 437.505
NOAA 18 02 May 16:35:41 16:38:29 14° 57° (ENE) 16:41:18 137.9125
ITAMSAT 1 02 May 16:41:33 16:41:44 10° 272° (W) 16:41:55 435.822/435.867
BEESAT 02 May 17:00:35 17:02:20 12° 301° (WNW) 17:04:05 436.000
AO-7 02 May 17:02:11 17:09:22 32° 264° (W) 17:16:37 29.400- 29.500
NOAA 15 02 May 17:06:47 17:11:09 27° 65° (ENE) 17:15:32 137.62
Cubesat XI-IV 02 May 17:08:35 17:12:15 19° 62° (ENE) 17:15:55 437.490
CUSAT 1 02 May 17:08:57 17:09:55 11° 303° (WNW) 17:10:55 437.405
PCSat 02 May 17:10:43 17:15:38 34° 309° (NW) 17:20:36 145.827
Cosmos 2491 02 May 17:10:48 17:18:39 34° 69° (ENE) 17:26:22 435.465 / 435.565
SO-50 02 May 17:17:22 17:21:22 28° 247° (WSW) 17:25:13 436.795
YUBILEINY 02 May 17:27:25 17:31:54 15° 75° (ENE) 17:36:23 435.215
KKS-1 02 May 17:30:37 17:34:36 32° 292° (WNW) 17:38:33 437.445
MOZHAYETS 4 02 May 17:31:28 17:35:52 48° 288° (WNW) 17:40:15
CUBESAT XI-V 02 May 17:39:09 17:42:56 24° 94° (E) 17:46:42 437.345
GOMX 1 02 May 17:41:18 17:44:34 17° 61° (ENE) 17:47:57 467.674
STARS 02 May 17:47:50 17:51:57 39° 290° (WNW) 17:56:02 437.465
BEESAT 3 02 May 17:52:42 17:55:13 16° 111° (ESE) 17:57:45 437.485
HO-68 02 May 17:57:00 17:58:30 11° 47° (NE) 18:00:00 435.675
HORYU 2 02 May 17:57:31 18:00:35 18° 267° (W) 18:03:39 437.375
M-CUBED/EXP-1 PRIME 02 May 17:59:21 18:03:21 28° 63° (ENE) 18:07:19 437.505
BEESAT 2 02 May 18:00:49 18:02:11 12° 108° (ESE) 18:03:33 435.950
CUTE-I 02 May 18:02:17 18:07:28 56° 72° (ENE) 18:12:41 437.470
LilacSat-2 02 May 18:02:54 18:06:35 43° 73° (ENE) 18:10:17 437.200
BRITE-PL 02 May 18:04:31 18:09:10 51° 71° (ENE) 18:14:14 437.365/2234.400
NOAA 18 02 May 18:12:51 18:18:23 88° 250° (WSW) 18:23:56 137.9125
AUBIESAT-1 02 May 18:17:59 18:22:11 35° 65° (ENE) 18:26:20 437.475
NOAA 15 02 May 18:45:48 18:50:43 40° 262° (W) 18:55:42 137.62
Cubesat XI-IV 02 May 18:46:35 18:51:50 60° 259° (WSW) 18:57:07 437.490
STRAND 1 02 May 18:53:11 18:55:10 12° 89° (E) 18:57:09 437.568
CUTE 1.7 + AOD 2 02 May 18:59:16 19:00:51 12° 62° (ENE) 19:02:26 437.475
Cosmos 2491 02 May 19:07:20 19:15:50 55° 270° (W) 19:24:17 435.465 / 435.565
Cosmos 2504 02 May 19:09:20 19:12:54 14° 78° (ENE) 19:16:25 435.465 / 435.565
DOVE 4 02 May 19:13:53 19:18:54 62° 74° (ENE) 19:24:08 437.250
CUBESAT XI-V 02 May 19:16:06 19:20:22 36° 290° (WNW) 19:24:40 437.345
GOMX 1 02 May 19:17:02 19:22:00 66° 260° (W) 19:27:19 467.674
YUBILEINY 02 May 19:18:28 19:27:12 80° 96° (E) 19:35:57 435.215
SEEDS 02 May 19:25:37 19:28:17 17° 65° (ENE) 19:30:58 437.485
BEESAT 3 02 May 19:28:48 19:32:34 44° 308° (NW) 19:36:24 437.485
COMPASS 1 02 May 19:30:00 19:32:02 13° 64° (ENE) 19:34:03 437.405
M-CUBED/EXP-1 PRIME 02 May 19:33:27 19:37:44 34° 258° (WSW) 19:42:01 437.505
BEESAT 2 02 May 19:35:33 19:39:30 64° 305° (NW) 19:43:29 435.950
HO-68 02 May 19:37:44 19:44:38 53° 67° (ENE) 19:51:33 435.675
LilacSat-2 02 May 19:39:05 19:41:07 14° 269° (W) 19:43:09 437.200
CUTE-I 02 May 19:44:09 19:47:52 19° 268° (W) 19:51:35 437.470
BRITE-PL 02 May 19:44:39 19:48:02 19° 271° (W) 19:51:37 437.365/2234.400
RS-15 02 May 19:47:18 19:51:46 13° 93° (E) 19:56:17 29.354- 29.394
AUBIESAT-1 02 May 19:52:45 19:56:39 26° 260° (W) 20:00:32 437.475
NOAA 18 02 May 19:58:11 19:59:46 11° 272° (W) 20:01:22 137.9125
CINEMA 3 02 May 19:58:33 20:03:28 57° 73° (ENE) 20:08:23 145.822/145.860
CANX-2 02 May 19:59:10 20:03:18 60° 75° (ENE) 20:07:28 2200.000
AAUSAT CUBESAT 2 02 May 19:59:37 20:02:50 22° 67° (ENE) 20:06:02 437.432
Oscar 11 02 May 20:18:57 20:21:39 16° 64° (ENE) 20:24:21 145.826/435.025
STRAND 1 02 May 20:29:48 20:34:56 79° 284° (WNW) 20:40:02 437.568
FUNcube-1 02 May 20:29:57 20:33:04 19° 65° (ENE) 20:36:08 145.935
CUTE 1.7 + AOD 2 02 May 20:31:58 20:36:09 66° 259° (W) 20:40:21 437.475
UWE-3 02 May 20:39:57 20:44:11 36° 70° (ENE) 20:48:21 435.000/436.395/437.385
PRISM 02 May 20:43:15 20:46:56 29° 97° (E) 20:50:37 437.425
CUBEBUG 2 02 May 20:46:44 20:51:24 60° 74° (ENE) 20:56:00 437.445
DOVE 4 02 May 20:53:47 20:57:02 17° 271° (W) 21:00:20 437.250
AO-85 02 May 20:58:18 21:02:36 30° 45° (NE) 21:06:34 145.980
SEEDS 02 May 20:59:41 21:03:40 43° 262° (W) 21:07:39 437.485
